Flag for Austria Weather past 2 weeks in Baden, Lower Austria, Austria

57 °F

Passing clouds.

Feels Like: 55 °F
Forecast: 51 / 65 °F
Wind: 12 mph from Northwest

Location: Vienna Schwechat-Flughafen Airport

Current Time: Oct 5, 2015 at 7:17:00 AM

Latest Report: Oct 5, 2015 at 5:50 AM

Visibility: N/A

Pressure: 30.01 "Hg

Humidity: 77%

Dew point: 50 °F

Location of BadenLocation

Historic Weather in Baden — Graph


Baden temperature yesterday

Maximum temperature yesterday: 64 °F (at 3:20 PM)
Minimum temperature yesterday: 54 °F (at 4:20 AM)
Average temperature yesterday: 57 °F

Past Weeks' High & Low Weather Summary

High72 °F (Sep 22, 2:20 PM)100% (Oct 1, 5:20 AM)30.51 "Hg (Oct 1, 5:20 AM)
Low41 °F (Oct 1, 5:20 AM)35% (Sep 22, 3:50 PM)29.68 "Hg (Sep 23, 3:20 AM)
Average56 °F70%30.17 "Hg
* Reported Sep 20 5:20 AM — Oct 5 5:20 AM, Baden, Weather by CustomWeather, © 2015

Note: Actual official high and low records may vary slightly from our data, if they occured in-between our weather recording intervals... More about our weather records


Baden weather history for previous 24 hours

Time TempWeatherWind HumidityBarometerVisibility
5:20 AM
Mon, Oct 5
57 °FPartly cloudy.10 mph77%30.01 "HgN/A
4:50 AM57 °FPassing clouds.12 mph77%30.01 "HgN/A
4:20 AM57 °FPassing clouds.8 mph82%30.01 "HgN/A
3:50 AM57 °FPassing clouds.8 mph82%30.01 "HgN/A
3:20 AM57 °FPassing clouds.7 mph82%30.04 "HgN/A
2:50 AM55 °FPassing clouds.8 mph88%30.04 "HgN/A
2:20 AM55 °FPassing clouds.7 mph88%30.01 "HgN/A
1:50 AM55 °FPartly cloudy.8 mph88%30.04 "HgN/A
1:20 AM55 °FLight rain. Partly cloudy.8 mph88%30.04 "HgN/A
12:50 AM55 °FLight rain. Partly cloudy.8 mph88%30.04 "HgN/A
12:20 AM55 °FLight rain. Passing clouds.5 mph88%30.04 "HgN/A
11:50 PM
Sun, Oct 4
57 °FLight rain. Passing clouds.9 mph82%30.04 "HgN/A
11:20 PM57 °FClear.7 mph88%30.04 "Hg10 mi
10:50 PM55 °FLight rain. Passing clouds.3 mph94%30.04 "HgN/A
10:20 PM55 °FLight rain. Passing clouds.6 mph94%30.04 "Hg6 mi
9:50 PM55 °FLight rain. Passing clouds.6 mph94%30.04 "HgN/A
9:20 PM57 °FLight rain. Passing clouds.7 mph88%30.04 "HgN/A
8:50 PM57 °FClear.5 mph88%30.04 "Hg10 mi
8:20 PM57 °FPartly cloudy.6 mph82%30.04 "HgN/A
7:50 PM57 °FClear.6 mph88%30.04 "Hg10 mi
7:20 PM59 °FSunny.12 mph82%30.04 "Hg10 mi
6:50 PM59 °FSunny.9 mph82%30.04 "Hg10 mi
6:20 PM59 °FSunny.8 mph82%30.01 "Hg10 mi
5:50 PM61 °FSunny.10 mph77%30.01 "Hg10 mi
5:20 PM63 °FPassing clouds.6 mph77%30.01 "HgN/A
4:50 PM63 °FPassing clouds.5 mph73%30.01 "HgN/A
4:20 PM63 °FSunny.6 mph77%30.01 "Hg10 mi
3:50 PM63 °FSunny.5 mph77%30.01 "Hg10 mi
3:20 PM64 °FPassing clouds.3 mph73%30.01 "HgN/A
2:50 PM63 °FPassing clouds.6 mph77%30.04 "HgN/A
2:20 PM63 °FPartly sunny.5 mph73%30.04 "HgN/A
1:50 PM61 °FPartly sunny.5 mph77%30.04 "HgN/A
1:20 PM59 °FPartly sunny.6 mph82%30.04 "HgN/A
12:50 PM59 °FPartly sunny.5 mph82%30.04 "HgN/A
12:20 PM57 °FPartly sunny.5 mph88%30.04 "HgN/A
11:50 AM57 °FLow clouds.5 mph88%30.04 "HgN/A
11:20 AM57 °FLow clouds.2 mph88%30.04 "HgN/A
10:50 AM55 °FPartly sunny.1 mph94%30.04 "HgN/A
10:20 AM55 °FPartly sunny.2 mph94%30.04 "Hg5 mi
9:50 AM55 °FPartly sunny.2 mph94%30.04 "Hg4 mi
9:20 AM55 °FPartly sunny.3 mph94%30.04 "Hg4 mi
8:50 AM55 °FPartly sunny.3 mph94%30.04 "Hg4 mi
8:20 AM54 °FFog.3 mph100%30.04 "Hg3 mi
7:50 AM54 °FFog.2 mph94%30.04 "Hg2 mi
7:20 AM54 °FFog.6 mph94%30.01 "Hg3 mi
Weather by CustomWeather, © 2015

See weather overviewHow to use our weather pages